#timestamp,LO_Frequency,Hit,StdDev 
1620795615.7,286047000.9,N
1620795635.5,286046998.2,N
1620795655.3,286046998.1,N
1620795675.2,286047001.0,N
1620795695.0,286047001.0,N
1620795695.9,286047001.0,N
1620795715.8,286046998.1,N
1620795735.6,286046998.2,N
1620795755.4,286046998.1,N
1620795775.3,286047000.5,N
1620795795.1,286047000.9,N
1620795815.9,286046998.1,N
1620795835.7,286046998.1,N
1620795855.5,286046998.6,N
1620795875.4,286046998.4,N
1620795895.2,286046999.3,N
1620795915.0,286046998.6,N
1620795915.9,286046998.6,N
1620795935.8,286046998.4,N
1620795955.6,286046998.8,N
1620795975.5,286046998.8,N
1620795995.3,286046998.3,N
1620796015.1,286046998.5,N
1620796035.9,286047001.0,N
1620796055.7,286046998.6,N
1620796075.6,286047001.1,N
1620796095.4,286047000.8,N
1620796115.2,286046999.4,N
1620796135.1,286046999.1,N
1620796136.0,286046999.1,N
1620796155.8,286046999.2,N
1620796175.7,286046998.3,N
1620796195.5,286046999.0,N
1620796215.3,286046999.3,N
1620796235.2,286046998.7,N
1620796255.0,286046999.1,N
1620796255.9,286046999.1,N
1620796275.7,286046998.5,N
1620796295.6,286046998.9,N
1620796315.4,286046998.5,N
1620796335.3,286046999.4,N
1620796355.1,286046998.7,N
1620796356.0,286046998.7,N
1620796375.8,286046998.7,N
1620796395.7,286046999.0,N
1620796415.5,286046998.8,N
1620796435.4,286046999.0,N
1620796455.2,286046999.3,N
1620796475.0,286046998.8,N
1620796475.9,286046998.8,N
1620796495.8,286046998.7,N
1620796515.6,286046998.6,N
1620796535.4,286046998.3,N
1620796555.3,286046998.1,N
1620796575.1,286047001.1,N
1620796595.9,286046998.1,N
1620796615.7,286046998.2,N
1620796635.5,286046998.5,N
1620796655.4,286047000.9,N
1620796675.2,286047000.6,N
1620796695.0,286047001.1,N
1620796696.0,286047001.1,N
1620796715.8,286047000.8,N
1620796735.6,286047000.8,N
1620796755.5,286046998.4,N
1620796775.3,286046998.5,N
1620796795.1,286046998.5,N
1620796815.9,286047001.1,N
1620796835.7,286047001.1,N
1620796855.6,286047000.7,N
1620796875.4,286047001.1,N
1620796895.2,286046998.2,N
1620796915.1,286046998.2,N
1620796916.0,286046998.2,N
1620796935.8,286046998.3,N
1620796955.6,286046998.8,N
1620796975.5,286046998.5,N
1620796995.3,286046998.8,N
1620797015.2,286046998.6,N
1620797035.9,286047000.7,N
1620797055.7,286046998.3,N
1620797075.6,286046998.7,N
1620797095.4,286046998.2,N
1620797115.3,286046998.2,N
1620797135.1,286047001.2,N
1620797136.0,286047001.2,N
1620797155.8,286047001.2,N
1620797175.7,286047001.2,N
1620797195.5,286046998.5,N
1620797215.3,286046998.1,N
1620797235.2,286046998.3,N
1620797255.0,286046998.8,N
1620797255.9,286046998.8,N
1620797275.8,286046998.8,N
1620797295.6,286046998.8,N
1620797315.4,286046998.7,N
1620797335.3,286046999.3,N
1620797355.1,286046998.7,N
1620797375.8,286046998.6,N
1620797395.7,286046999.0,N
1620797415.5,286046999.4,N
1620797435.4,286046999.1,N
1620797455.2,286046999.5,N
1620797475.0,286046999.0,N
1620797475.9,286046999.0,N
1620797495.8,286046998.3,N
1620797515.6,286046999.0,N
1620797535.4,286046998.9,N
1620797555.3,286046999.0,N
1620797575.1,286046999.3,N
1620797595.9,286046998.2,N
1620797615.7,286046998.9,N
1620797635.5,286046998.6,N
1620797655.4,286046998.2,N
1620797675.2,286047000.8,N
1620797695.0,286047000.8,N
1620797696.0,286047000.8,N
1620797715.8,286047001.2,N
1620797735.6,286046998.1,N
1620797755.5,286046998.6,N
1620797775.3,286046999.0,N
1620797795.1,286046998.9,N
1620797815.9,286046998.3,N
1620797835.7,286046998.1,N
1620797855.6,286046998.1,N
1620797875.4,286046998.7,N
1620797895.2,286046998.9,N
1620797915.1,286046998.4,N
1620797916.0,286046998.4,N
1620797935.8,286046998.7,N
1620797955.6,286046998.4,N
1620797975.5,286046999.1,N
1620797995.3,286046998.4,N
1620798015.2,286046999.4,N
1620798035.9,286046998.4,N
1620798055.7,286046999.6,N
1620798075.6,286046998.8,N
1620798095.4,286046998.7,N
1620798115.3,286047001.2,N
1620798135.1,286046998.2,N
1620798136.0,286046998.2,N
1620798155.8,286047000.9,N
1620798175.7,286047001.1,N
1620798195.5,286047001.0,N
1620798215.3,286047000.4,N
1620798235.2,286047000.7,N
1620798255.0,286047000.7,N
1620798255.9,286047000.7,N
1620798275.8,286047001.0,N
1620798295.6,286047001.0,N
1620798315.4,286047000.1,N
1620798335.3,286046999.9,N
1620798355.1,286047000.1,N
1620798375.9,286047000.2,N
1620798395.7,286047002.3,N
1620798415.5,286047002.8,N
1620798435.4,286047002.8,N
1620798455.2,286047002.3,N
1620798475.0,286047002.6,N
1620798476.0,286047002.6,N
1620798495.8,286047002.3,N
1620798515.6,286047002.1,N
1620798535.5,286047002.5,N
1620798555.3,286047001.5,N
1620798575.1,286047001.8,N
1620798595.9,286047001.8,N
1620798615.7,286047001.8,N
1620798635.6,286047001.5,N
1620798655.4,286047001.6,N
1620798675.2,286047001.7,N
1620798695.1,286047001.4,N
1620798696.0,286047001.4,N
1620798715.8,286047001.5,N
1620798735.6,286047001.5,N
1620798755.5,286047001.6,N
1620798775.3,286047001.9,N
1620798795.2,286047001.9,N
1620798815.9,286047001.9,N
1620798835.7,286047001.7,N
1620798855.6,286047001.6,N
1620798875.4,286047001.9,N
1620798895.3,286047001.7,N
1620798915.1,286047001.9,Y
1620798916.0,286047001.9,P
1620798935.8,286047001.1,P
1620798955.7,286047000.3,N
1620798975.5,286046999.9,N
1620798995.3,286046999.8,N
1620799015.2,286046999.8,N
1620799035.0,286046999.7,N
1620799035.9,286046999.7,N
1620799055.8,286046999.8,N
1620799075.6,286047000.1,N
1620799095.4,286047002.8,Y
1620799115.3,286046999.7,P
1620799135.1,286047000.1,N
1620799155.9,286047000.3,N
1620799175.7,286047000.1,N
1620799195.5,286047002.8,Y
